Location: Fort Wayne
(41.1310°N, 85.1290°W)
Time: 16:31:01
(UTC-04:00)

Daily predictions for brighter satellites

Satellite Brightness Start Highest point End
(mag) Time Altitude Azimuth Time Altitude Azimuth Time Altitude Azimuth
Cosmos 2112 Rocket 4.1 21:32:01 10° NNW 21:37:23 77° ENE 21:42:44 10° SSE
Cosmos 1680 Rocket 3.6 21:35:40 10° NNW 21:41:01 85° WSW 21:46:20 10° SSE
Cosmos 1898 Rocket 3.7 21:40:24 10° S 21:45:28 50° ESE 21:50:35 10° NNE
Envisat 3.2 21:41:33 10° S 21:46:38 77° WSW 21:51:44 10° NNW
Cosmos 2369 Rocket 3.7 21:43:56 10° SE 21:47:13 16° E 21:50:31 10° ENE
Timation 2 Rocket 4.3 21:41:36 10° NNW 21:47:46 57° ENE 21:54:11 10° SE
Cosmos 2242 Rocket 3.6 21:43:53 10° N 21:48:25 81° E 21:52:51 10° S
USA 215 3.4 21:43:20 10° ESE 21:49:52 74° NE 21:56:25 10° NW
COSMOS 2455 4.1 21:46:10 10° SSE 21:50:20 20° ESE 21:54:30 10° ENE
OAO 2 Rocket 3.9 21:45:55 10° WSW 21:50:38 41° S 21:55:16 10° ESE
NOSS 3-2 (C) 3.9 21:46:47 10° S 21:52:10 37° ESE 21:58:00 10° NE
Tiangong 2 1.6 21:51:15 10° W 21:54:27 61° N 21:57:38 10° E
Resurs 01 Rocket 3.5 21:53:42 10° SSW 21:57:33 30° W 22:01:28 10° NW
Cosmos 2278 Rocket 4.4 21:53:12 10° WSW 21:58:10 31° WNW 22:03:12 10° N
Meteor 2-3 Rocket 4.1 21:54:09 10° SSE 21:59:34 45° E 22:04:57 10° NNE
H-2A R/B 3.6 21:56:25 10° ESE 22:00:36 23° ENE 22:04:44 10° NNE
Cosmos 990 Rocket 4.4 21:56:43 10° S 22:01:35 42° ESE 22:06:29 10° NNE
COSMOS 2487 2.4 21:58:17 10° NNW 22:01:51 83° ENE 22:05:22 10° SSE
Hubble Space Telescope 2.9 22:00:38 10° SW 22:02:39 13° S 22:04:38 10° SSE
Cosmos 1315 Rocket 2.9 22:00:59 10° S 22:04:58 85° W 22:09:03 10° N
Cosmos 1816 Rocket 4.5 22:08:17 10° S 22:14:28 83° E 22:20:39 10° N
Cosmos 2298 Rocket 4.0 22:14:02 10° SSW 22:19:19 80° ESE 22:24:38 10° NNE
Cosmos 2150 Rocket 4.0 22:15:15 10° S 22:20:37 72° ESE 22:25:57 10° NNE
Cosmos 724 4.5 22:15:41 10° SSW 22:21:53 86° WNW 22:28:03 10° NNE
Cosmos 1933 Rocket 4.1 22:18:12 10° SSW 22:22:28 60° W 22:26:47 10° N
CENTAUR R/B 3.6 22:22:17 16° SE 22:24:58 21° ESE 22:29:42 10° ENE
Cosmos 1862 Rocket 4.2 22:21:15 10° NNW 22:25:39 58° W 22:30:03 10° S
Meteor 1-29 3.6 22:22:20 10° N 22:25:46 60° WNW 22:29:13 10° SSW
ATLAS 5 CENTAUR R/B 4.1 22:22:01 10° N 22:26:20 21° NE 22:30:56 10° E
Cosmos 1937 Rocket 3.5 22:25:36 10° SSW 22:30:44 88° WNW 22:35:55 10° NNE
Cosmos 2082 Rocket 3.4 22:27:32 10° NW 22:32:41 37° WSW 22:37:50 10° S
CZ-4B DEB 4.2 22:33:12 10° SSW 22:35:51 30° W 22:38:31 10° NNW
GEOS 3 Rocket 4.1 22:34:44 19° ESE 22:38:14 50° NE 22:43:17 10° NNW
MetOp-B 4.1 22:38:58 16° SSE 22:43:17 86° WSW 22:48:41 10° NNW
ARGOS 3.1 22:39:48 19° SSE 22:43:46 80° ENE 22:49:09 10° N
Helios 1B rocket 4.3 22:41:36 10° N 22:45:16 32° WNW 22:48:55 10° SW
Cosmos 1833 Rocket 4.4 22:47:51 10° NW 22:52:28 27° WSW 22:57:04 10° SSW
Aureole 3 2.6 22:53:50 38° S 22:54:56 74° E 22:57:57 10° NNE
Cosmos 1825 2.4 22:54:53 37° SE 22:55:52 47° E 22:59:31 10° NNE
Shenzhou-11 Module 1.9 22:53:12 10° WNW 22:56:17 84° NNE 22:56:59 50° E
SPOT 1/Viking Rocket 3.6 22:55:11 27° SSE 22:58:01 70° ENE 23:03:12 10° N
Lacrosse 4 Rocket 3.6 22:55:44 10° N 22:58:52 18° NE 23:00:54 14° E
Cosmos 1346 Rocket 3.8 22:55:51 10° NNW 22:59:35 42° W 23:02:16 17° SSW
Cosmos 1892 4.3 22:56:42 10° SW 23:00:14 33° WNW 23:03:46 10° N
Landsat 7 4.2 22:58:40 31° SE 23:00:36 49° ENE 23:05:12 10° N
Cosmos 1703 Rocket 3.9 22:57:31 10° NNW 23:01:55 63° W 23:04:34 23° S
GPS 2-04 Rocket1 4.1 23:01:06 10° SW 23:02:41 20° SSW 23:02:41 20° SSW
Cosmos 158 Rocket 4.5 22:59:54 10° N 23:04:33 41° ENE 23:06:17 30° ESE
SPOT 5 3.2 23:02:29 23° S 23:05:51 75° WSW 23:11:14 10° NNW
Cosmos 2263 4.3 23:03:01 21° S 23:06:40 54° ESE 23:12:17 10° NNE
Meteor 1-10 Rocket 4.3 23:00:55 10° N 23:06:54 78° E 23:10:06 29° SSE
ERS-1 Rocket 4.1 23:03:06 12° SSW 23:07:19 39° W 23:12:03 10° NNW
Okean 1-7 3.1 23:06:07 10° N 23:10:32 76° W 23:12:30 32° S
Cosmos 1900 4.4 23:05:38 10° NNW 23:10:50 85° WSW 23:12:59 36° SSE
Meteor 1-27 Rocket 4.1 23:05:15 10° N 23:10:54 50° ENE 23:13:07 33° SE
Cosmos 2221 Rocket 3.8 23:09:33 10° NNW 23:13:57 67° W 23:15:59 31° S
Terra 2.2 23:14:17 36° ESE 23:15:43 49° ENE 23:20:18 10° N
Cosmos 468 4.4 23:12:24 10° NNW 23:17:42 79° ENE 23:19:41 39° SSE
Cosmos 1408 2.6 23:17:38 43° SSW 23:18:44 77° W 23:22:29 10° N
Cosmos 1733 Rocket 3.5 23:18:57 40° ESE 23:19:15 41° E 23:23:19 10° NNE
BREEZE-M DEB (TANK) 3.8 23:17:01 10° NW 23:20:32 63° NNE 23:35:30 10° ESE
Cosmos 1869 Rocket 4.4 23:17:54 16° SSW 23:21:10 48° W 23:25:24 10° N
Cosmos 1269 Rocket 4.3 23:17:04 10° N 23:22:17 56° ENE 23:23:58 39° ESE
Cosmos 1943 Rocket 2.1 23:25:37 33° S 23:28:03 64° ESE 23:33:35 10° NNE
Cosmos 1782 3.4 23:25:14 10° NNW 23:29:09 52° W 23:30:19 38° SW
IGS 5A 3.4 23:29:21 56° ESE 23:29:55 64° ENE 23:34:02 10° N
Cosmos 2369 Rocket 2.4 23:24:57 10° SSW 23:30:33 70° WNW 23:36:15 10° NNE
CZ-4 R/B 4.5 23:26:33 10° NNE 23:30:44 36° E 23:30:44 36° E
Cosmos 1606 3.2 23:27:27 10° NNW 23:31:09 54° W 23:31:57 44° SW
Tiangong 2 1.7 23:28:15 10° WNW 23:30:49 52° W 23:30:49 52° W
USA 215 4.4 23:30:05 21° SSW 23:33:11 31° SW 23:38:53 10° WNW
Cosmos 1092 Rocket 4.3 23:33:11 38° SE 23:34:48 46° E 23:40:37 10° NNE
Cosmos 1340 2.5 23:31:01 10° N 23:34:50 84° W 23:35:05 76° SSW
deb Kosmos-1763 4.2 23:31:37 10° NNW 23:35:22 64° ENE 23:35:22 64° ENE
COSMOS 2455 3.2 23:29:43 10° SW 23:35:40 66° WNW 23:41:41 10° NNE
Cosmos 1125 Rocket 3.5 23:34:35 27° SSW 23:37:32 83° WNW 23:42:48 10° NNE
H-2A R/B 2.8 23:37:00 27° SSW 23:39:39 49° W 23:44:53 10° NNW
Nadezhda 4 Rocket 3.9 23:38:12 38° S 23:40:42 75° E 23:46:53 10° N
Cosmos 1862 3.3 23:43:34 65° SW 23:44:02 75° W 23:48:02 10° N
Milstar 3 4.0 23:39:16 10° SW 23:44:55 25° S 23:44:55 25° S
CARTOSAT-1 3.5 23:48:23 63° SSW 23:48:57 73° WSW 23:53:18 10° NNW
Cosmos 372 Rocket 4.0 23:48:18 35° SSW 23:50:31 76° WNW 23:55:40 10° NNE
Cosmos 1674 Rocket 3.4 23:51:00 10° N 23:55:21 75° E 23:55:23 75° E
